Find Starlink 32273

NORAD ID: 61956 Int'l Des: 2024-209 Owner: SPXS Country: US Constellation: starlink operational
LEOCIRCULAR

当前视图

正在加载3D地球...

About Starlink 32273

Starlink 32273 (NORAD 61956) is a starlink constellation satellite (v2 mini) launched Nov 14, 2024 by SPXS of US. It operates in LEO, CIRCULAR orbit with a mass of 730.00 kg.

即将过境

Passes for default location (London). Set your location on the main map for personalized predictions.

高度历史

Loading altitude history...

两行轨道根数

1 61956U 24209T 26236.86041572 .00029907 00000-0 89182-3 0 9994
2 61956 53.1602 79.9156 0000492 53.0244 307.0804 15.34433131100669
Epoch: Aug 24, 2026 • Age: 21 hours

当前状态

高度 476.6 km
远地点 / 近地点 N/A
速度 7.63 km/s
星下点 -41.48°S, 53.04°E
发射日期 Nov 14, 2024
运行时间 1.7 years
类型 internet

技术详情

分类 Payload
质量 730.00 kg
干质量 700.00 kg
总质量 730.00 kg
长度 0.30 m
直径 4.10 m
跨度 29.00 m
形状 Box + pan
制造商 SPXS
平台类型 Starlink V2M
阶段状态 In Orbit
所有者/国家 SPXS/US

Most Searched